When you browse on this site, cookies collect data to enhance your experience and personalize the content and advertising you see.
Visit our Privacy Policy to learn more. By continuing to use the site, you agree to this use of cookies and data.
  • In United Kingdom
  • List of Countries
  • For 7 days
  • Water Temperature
  • Weather Map
  • Weather Widgets
  • user-avatar
    Login

    Hourly Weather Razgrad

    Today, 23 October, Wednesday

    Time Temperature Precipitation Wind Pressure Humidity
    00:00 +14°C° 0 mm 1 mps 747 mmHg 75%
    01:00 +14°C° 0 mm 1 mps 747 mmHg 77%
    02:00 +13°C° 0 mm 1 mps 747 mmHg 79%
    03:00 +13°C° 0 mm 1 mps 747 mmHg 78%
    04:00 +13°C° 0 mm 1 mps 747 mmHg 77%
    05:00 +13°C° 0 mm 1 mps 747 mmHg 76%
    06:00 +14°C° 0 mm 1 mps 747 mmHg 72%
    07:00 +14°C° 0 mm 1 mps 747 mmHg 67%
    08:00 +16°C° 0 mm 1 mps 747 mmHg 61%
    09:00 +19°C° 0 mm 1 mps 747 mmHg 52%
    10:00 +21°C° 0 mm 1 mps 747 mmHg 43%
    11:00 +24°C° 0 mm 1 mps 747 mmHg 34%
    12:00 +25°C° 0 mm 1 mps 747 mmHg 31%
    13:00 +25°C° 0 mm 1 mps 746 mmHg 29%
    14:00 +26°C° 0 mm 2 mps 746 mmHg 27%
    15:00 +25°C° 0 mm 2 mps 746 mmHg 30%
    16:00 +23°C° 0 mm 2 mps 746 mmHg 34%
    17:00 +21°C° 0 mm 2 mps 745 mmHg 38%
    18:00 +20°C° 0 mm 2 mps 746 mmHg 42%
    19:00 +19°C° 0 mm 1 mps 746 mmHg 46%
    20:00 +18°C° 0 mm 1 mps 746 mmHg 50%
    21:00 +16°C° 0 mm 1 mps 746 mmHg 52%
    22:00 +16°C° 0 mm 1 mps 746 mmHg 54%
    23:00 +15°C° 0 mm 1 mps 746 mmHg 56%

    Tomorrow, 24 October, Thursday

    Time Temperature Precipitation Wind Pressure Humidity
    00:00 +15°C° 0 mm 1 mps 746 mmHg 58%
    01:00 +14°C° 0 mm 1 mps 746 mmHg 60%
    02:00 +14°C° 0 mm 1 mps 745 mmHg 61%
    03:00 +14°C° 0 mm 1 mps 745 mmHg 61%
    04:00 +14°C° 0 mm 1 mps 745 mmHg 62%
    05:00 +13°C° 0 mm 1 mps 745 mmHg 62%
    06:00 +14°C° 0 mm 1 mps 745 mmHg 59%
    07:00 +15°C° 0 mm 1 mps 745 mmHg 56%
    08:00 +15°C° 0 mm 1 mps 745 mmHg 53%
    09:00 +19°C° 0 mm 1 mps 745 mmHg 44%
    10:00 +21°C° 0 mm 2 mps 745 mmHg 35%
    11:00 +24°C° 0 mm 2 mps 745 mmHg 27%
    12:00 +25°C° 0 mm 2 mps 745 mmHg 25%
    13:00 +26°C° 0 mm 2 mps 745 mmHg 23%
    14:00 +27°C° 0 mm 2 mps 744 mmHg 21%
    15:00 +25°C° 0 mm 2 mps 744 mmHg 25%
    16:00 +24°C° 0 mm 2 mps 743 mmHg 29%
    17:00 +21°C° 0 mm 2 mps 743 mmHg 33%
    18:00 +19°C° 0 mm 2 mps 743 mmHg 39%
    19:00 +18°C° 0 mm 2 mps 743 mmHg 45%
    20:00 +16°C° 0 mm 2 mps 743 mmHg 50%
    21:00 +16°C° 0 mm 2 mps 743 mmHg 53%
    22:00 +15°C° 0 mm 2 mps 743 mmHg 55%
    23:00 +15°C° 0 mm 2 mps 743 mmHg 57%

    Day after tomorrow, 25 October, Friday

    Time Temperature Precipitation Wind Pressure Humidity
    00:00 +14°C° 0 mm 2 mps 743 mmHg 57%
    01:00 +14°C° 0 mm 2 mps 743 mmHg 57%
    02:00 +13°C° 0 mm 2 mps 743 mmHg 57%
    03:00 +13°C° 0 mm 1 mps 743 mmHg 56%
    04:00 +13°C° 0 mm 1 mps 743 mmHg 55%
    05:00 +13°C° 0 mm 1 mps 743 mmHg 54%
    06:00 +13°C° 0 mm 1 mps 743 mmHg 51%
    07:00 +14°C° 0 mm 1 mps 743 mmHg 49%
    08:00 +15°C° 0 mm 1 mps 744 mmHg 46%
    09:00 +18°C° 0 mm 1 mps 744 mmHg 40%
    10:00 +21°C° 0 mm 1 mps 744 mmHg 34%
    11:00 +23°C° 0 mm 1 mps 744 mmHg 28%
    12:00 +24°C° 0 mm 1 mps 744 mmHg 26%
    13:00 +25°C° 0 mm 1 mps 744 mmHg 24%
    14:00 +26°C° 0 mm 1 mps 744 mmHg 22%
    15:00 +25°C° 0 mm 1 mps 744 mmHg 26%
    16:00 +23°C° 0 mm 2 mps 743 mmHg 30%
    17:00 +20°C° 0 mm 2 mps 743 mmHg 35%
    18:00 +20°C° 0 mm 1 mps 744 mmHg 41%
    19:00 +18°C° 0 mm 1 mps 744 mmHg 48%
    20:00 +16°C° 0 mm 1 mps 744 mmHg 54%
    21:00 +16°C° 0 mm 1 mps 744 mmHg 56%
    22:00 +15°C° 0 mm 1 mps 745 mmHg 59%
    23:00 +15°C° 0 mm 1 mps 745 mmHg 61%

    26 October, Saturday

    Time Temperature Precipitation Wind Pressure Humidity
    00:00 +14°C° 0 mm 1 mps 745 mmHg 62%
    01:00 +14°C° 0 mm 1 mps 745 mmHg 62%
    02:00 +13°C° 0 mm 0 mps 745 mmHg 63%
    03:00 +12°C° 0 mm 0 mps 745 mmHg 63%
    04:00 +12°C° 0 mm 0 mps 745 mmHg 63%
    05:00 +12°C° 0 mm 0 mps 745 mmHg 63%
    06:00 +12°C° 0 mm 0 mps 745 mmHg 60%
    07:00 +13°C° 0 mm 0 mps 746 mmHg 57%
    08:00 +14°C° 0 mm 0 mps 746 mmHg 54%
    09:00 +16°C° 0 mm 0 mps 746 mmHg 47%
    10:00 +19°C° 0 mm 0 mps 747 mmHg 41%
    11:00 +23°C° 0 mm 1 mps 747 mmHg 34%
    12:00 +24°C° 0 mm 1 mps 746 mmHg 31%
    13:00 +25°C° 0 mm 1 mps 746 mmHg 29%
    14:00 +25°C° 0 mm 1 mps 746 mmHg 26%
    15:00 +24°C° 0 mm 1 mps 745 mmHg 30%
    16:00 +22°C° 0 mm 1 mps 745 mmHg 33%
    17:00 +21°C° 0 mm 1 mps 745 mmHg 36%
    18:00 +20°C° 0 mm 1 mps 745 mmHg 38%
    19:00 +19°C° 0 mm 1 mps 745 mmHg 41%
    20:00 +15°C° 0 mm 0 mps 745 mmHg 44%
    21:00 +15°C° 0 mm 0 mps 745 mmHg 45%
    22:00 +15°C° 0 mm 1 mps 745 mmHg 46%
    23:00 +15°C° 0 mm 1 mps 745 mmHg 47%

    27 October, Sunday

    Time Temperature Precipitation Wind Pressure Humidity
    00:00 +15°C° 0 mm 1 mps 745 mmHg 48%
    01:00 +14°C° 0 mm 1 mps 745 mmHg 49%
    02:00 +14°C° 0 mm 1 mps 745 mmHg 50%
    03:00 +14°C° 0 mm 1 mps 744 mmHg 51%
    04:00 +12°C° 0 mm 0 mps 744 mmHg 52%
    05:00 +12°C° 0 mm 0 mps 744 mmHg 52%
    06:00 +13°C° 0 mm 0 mps 744 mmHg 51%
    07:00 +13°C° 0 mm 0 mps 744 mmHg 50%
    08:00 +14°C° 0 mm 0 mps 744 mmHg 48%
    09:00 +17°C° 0 mm 0 mps 744 mmHg 42%
    10:00 +19°C° 0 mm 0 mps 744 mmHg 36%
    11:00 +21°C° 0 mm 0 mps 744 mmHg 30%
    12:00 +24°C° 0 mm 1 mps 744 mmHg 28%
    13:00 +25°C° 0 mm 1 mps 743 mmHg 26%
    14:00 +25°C° 0 mm 1 mps 743 mmHg 24%
    15:00 +24°C° 0 mm 1 mps 743 mmHg 27%
    16:00 +22°C° 0 mm 1 mps 742 mmHg 30%
    17:00 +21°C° 0 mm 1 mps 742 mmHg 33%
    18:00 +19°C° 0 mm 1 mps 742 mmHg 37%
    19:00 +18°C° 0 mm 1 mps 742 mmHg 40%
    20:00 +16°C° 0 mm 1 mps 742 mmHg 43%
    21:00 +15°C° 0 mm 1 mps 742 mmHg 46%
    22:00 +15°C° 0 mm 1 mps 742 mmHg 49%
    23:00 +14°C° 0 mm 1 mps 742 mmHg 52%

    28 October, Monday

    Time Temperature Precipitation Wind Pressure Humidity
    00:00 +14°C° 0 mm 1 mps 741 mmHg 54%
    01:00 +13°C° 0 mm 1 mps 741 mmHg 56%
    02:00 +13°C° 0 mm 1 mps 741 mmHg 58%
    03:00 +13°C° 0 mm 1 mps 741 mmHg 59%
    04:00 +12°C° 0 mm 1 mps 741 mmHg 60%
    05:00 +12°C° 0 mm 1 mps 740 mmHg 61%
    06:00 +13°C° 0 mm 1 mps 740 mmHg 59%
    07:00 +13°C° 0 mm 1 mps 740 mmHg 56%
    08:00 +14°C° 0 mm 1 mps 740 mmHg 54%
    09:00 +18°C° 0 mm 1 mps 740 mmHg 46%
    10:00 +20°C° 0 mm 1 mps 740 mmHg 39%
    11:00 +22°C° 0 mm 1 mps 740 mmHg 32%
    12:00 +23°C° 0 mm 1 mps 740 mmHg 29%
    13:00 +24°C° 0 mm 1 mps 740 mmHg 26%
    14:00 +25°C° 0 mm 1 mps 740 mmHg 23%
    15:00 +23°C° 0 mm 1 mps 739 mmHg 26%
    16:00 +22°C° 0 mm 1 mps 739 mmHg 29%
    17:00 +20°C° 0 mm 1 mps 739 mmHg 32%
    18:00 +19°C° 0 mm 1 mps 739 mmHg 35%
    19:00 +18°C° 0 mm 1 mps 739 mmHg 37%
    20:00 +15°C° 0 mm 0 mps 739 mmHg 40%
    21:00 +15°C° 0 mm 1 mps 739 mmHg 41%
    22:00 +15°C° 0 mm 1 mps 739 mmHg 42%
    23:00 +15°C° 0 mm 1 mps 739 mmHg 43%

    29 October, Tuesday

    Time Temperature Precipitation Wind Pressure Humidity
    00:00 +14°C° 0 mm 1 mps 739 mmHg 44%
    01:00 +14°C° 0 mm 1 mps 739 mmHg 44%
    02:00 +14°C° 0 mm 1 mps 739 mmHg 45%
    03:00 +13°C° 0 mm 1 mps 739 mmHg 46%
    04:00 +13°C° 0 mm 1 mps 739 mmHg 46%
    05:00 +13°C° 0 mm 1 mps 739 mmHg 47%
    06:00 +13°C° 0 mm 0 mps 740 mmHg 46%
    07:00 +13°C° 0 mm 0 mps 740 mmHg 45%
    08:00 +14°C° 0 mm 0 mps 740 mmHg 44%
    09:00 +18°C° 0 mm 1 mps 740 mmHg 40%
    10:00 +20°C° 0 mm 1 mps 741 mmHg 36%
    11:00 +22°C° 0 mm 1 mps 741 mmHg 32%
    12:00 +23°C° 0 mm 1 mps 741 mmHg 31%
    13:00 +24°C° 0 mm 1 mps 740 mmHg 30%
    14:00 +24°C° 0 mm 1 mps 740 mmHg 29%
    15:00 +23°C° 0 mm 1 mps 740 mmHg 32%
    16:00 +21°C° 0 mm 1 mps 740 mmHg 36%
    17:00 +20°C° 0 mm 1 mps 740 mmHg 39%
    18:00 +18°C° 0 mm 1 mps 740 mmHg 45%
    19:00 +16°C° 0 mm 1 mps 740 mmHg 50%
    20:00 +15°C° 0 mm 1 mps 740 mmHg 56%
    21:00 +14°C° 0 mm 1 mps 740 mmHg 59%
    22:00 +14°C° 0 mm 1 mps 741 mmHg 61%
    23:00 +13°C° 0 mm 1 mps 741 mmHg 64%
    Show more